ProjectID,Date,Electric Generation,Electric Utility Import,Facility Electric Load
,YYYY-MM-DD,kW,kW,kW
161,2015-06-12,20.480458333333335,,20.480458333333335
161,2015-06-13,23.835624999999997,,23.835624999999997
161,2015-06-14,19.493166666666667,,19.493166666666667
161,2015-06-15,8.162083333333333,,8.162083333333333
161,2015-06-16,12.232125000000002,,12.232125000000002
161,2015-06-17,16.133791666666667,,16.133791666666667
161,2015-06-18,7.8652083333333325,,7.8652083333333325
161,2015-06-19,20.062166666666666,,20.062166666666666
161,2015-06-20,4.431,,4.431
161,2015-06-21,13.707374999999999,,13.707374999999999
161,2015-06-22,23.960916666666666,,23.960916666666666
161,2015-06-23,15.787875,,15.787875
161,2015-06-24,25.575,,25.575
161,2015-06-25,18.38416666666667,,18.38416666666667
161,2015-06-26,21.083333333333332,,21.083333333333332
161,2015-06-27,6.190416666666667,,6.190416666666667
161,2015-06-28,8.120416666666666,,8.120416666666666
161,2015-06-29,16.38625,,16.38625
161,2015-06-30,21.205833333333334,,21.205833333333334
161,2015-07-01,19.217875,,19.217875
161,2015-07-02,12.917,,12.917
161,2015-07-03,22.307625,,22.307625
161,2015-07-04,12.719041666666667,,12.719041666666667
161,2015-07-05,21.057583333333334,,21.057583333333334
161,2015-07-06,17.304958333333335,,17.304958333333335
161,2015-07-07,17.3265,,17.3265
161,2015-07-08,11.979791666666666,,11.979791666666666
161,2015-07-09,10.632875,,10.632875
161,2015-07-10,23.199583333333333,,23.199583333333333
161,2015-07-11,21.577875000000002,,21.577875000000002
161,2015-07-12,20.317416666666666,,20.317416666666666
161,2015-07-13,21.425208333333334,,21.425208333333334
161,2015-07-14,10.720999999999998,,10.720999999999998
161,2015-07-15,6.591166666666666,,6.591166666666666
161,2015-07-16,24.924166666666665,,24.924166666666665
161,2015-07-17,22.584625,,22.584625
161,2015-07-18,13.76075,,13.76075
161,2015-07-19,23.1185,,23.1185
161,2015-07-20,19.006249999999998,,19.006249999999998
161,2015-07-21,11.841833333333334,,11.841833333333334
161,2015-07-22,23.74875,,23.74875
161,2015-07-23,22.890625,,22.890625
161,2015-07-24,23.143,,23.143
161,2015-07-25,22.301833333333335,,22.301833333333335
161,2015-07-26,16.627541666666666,,16.627541666666666
161,2015-07-27,20.00425,,20.00425
161,2015-07-28,19.116541666666667,,19.116541666666667
161,2015-07-29,18.018874999999998,,18.018874999999998
161,2015-07-30,6.686958333333333,,6.686958333333333
161,2015-07-31,23.709666666666667,,23.709666666666667
161,2015-08-01,17.425458333333335,,17.425458333333335
161,2015-08-02,23.020791666666668,,23.020791666666668
161,2015-08-03,21.8105,,21.8105
161,2015-08-04,22.320625000000003,,22.320625000000003
161,2015-08-05,18.390958333333334,,18.390958333333334
161,2015-08-06,19.532333333333334,,19.532333333333334
161,2015-08-07,23.366625,,23.366625
161,2015-08-08,18.66925,,18.66925
161,2015-08-09,19.737666666666666,,19.737666666666666
161,2015-08-10,20.313458333333333,,20.313458333333333
161,2015-08-11,7.127624999999999,,7.127624999999999
161,2015-08-12,21.014708333333335,,21.014708333333335
161,2015-08-13,20.79104166666667,,20.79104166666667
161,2015-08-14,21.797166666666666,,21.797166666666666
161,2015-08-15,21.289083333333334,,21.289083333333334
161,2015-08-16,16.386416666666666,,16.386416666666666
161,2015-08-17,16.11916666666667,,16.11916666666667
161,2015-08-18,20.301125,,20.301125
161,2015-08-19,16.06675,,16.06675
161,2015-08-20,15.230458333333333,,15.230458333333333
161,2015-08-21,18.044333333333334,,18.044333333333334
161,2015-08-22,22.042,,22.042
161,2015-08-23,15.250666666666667,,15.250666666666667
161,2015-08-24,19.069375,,19.069375
161,2015-08-25,19.027958333333334,,19.027958333333334
161,2015-08-26,19.206083333333336,,19.206083333333336
161,2015-08-27,17.694375,,17.694375
161,2015-08-28,21.320666666666668,,21.320666666666668
161,2015-08-29,18.685875,,18.685875
161,2015-08-30,16.477208333333333,,16.477208333333333
161,2015-08-31,13.410833333333334,,13.410833333333334
161,2015-09-01,16.62366666666667,,16.62366666666667
161,2015-09-02,17.288416666666667,,17.288416666666667
161,2015-09-03,17.709666666666667,,17.709666666666667
161,2015-09-04,12.198625,,12.198625
161,2015-09-05,21.080791666666666,,21.080791666666666
161,2015-09-06,19.87183333333333,,19.87183333333333
161,2015-09-07,19.436208333333333,,19.436208333333333
161,2015-09-08,18.148500000000002,,18.148500000000002
161,2015-09-09,13.153041666666667,,13.153041666666667
161,2015-09-10,3.7467916666666667,,3.7467916666666667
161,2015-09-11,15.106791666666666,,15.106791666666666
161,2015-09-12,8.377,,8.377
161,2015-09-13,14.660874999999999,,14.660874999999999
161,2015-09-14,20.017625,,20.017625
161,2015-09-15,19.32166666666667,,19.32166666666667
161,2015-09-16,18.582083333333333,,18.582083333333333
161,2015-09-17,18.375083333333333,,18.375083333333333
161,2015-09-18,18.050875,,18.050875
161,2015-09-19,17.070375000000002,,17.070375000000002
161,2015-09-20,17.143958333333334,,17.143958333333334
161,2015-09-21,14.980541666666667,,14.980541666666667
161,2015-09-22,8.716833333333334,,8.716833333333334
161,2015-09-23,18.046291666666665,,18.046291666666665
161,2015-09-24,18.107458333333334,,18.107458333333334
161,2015-09-25,15.990375,,15.990375
161,2015-09-26,16.566458333333333,,16.566458333333333
161,2015-09-27,10.718125,,10.718125
161,2015-09-28,9.776166666666667,,9.776166666666667
161,2015-09-29,10.792375,,10.792375
161,2015-09-30,4.4394583333333335,,4.4394583333333335
161,2015-10-01,3.48375,,3.48375
161,2015-10-02,2.7304999999999997,,2.7304999999999997
161,2015-10-03,1.487,,1.487
161,2015-10-04,12.091125,,12.091125
161,2015-10-05,16.092458333333333,,16.092458333333333
161,2015-10-06,16.95575,,16.95575
161,2015-10-07,14.115250000000001,,14.115250000000001
161,2015-10-08,12.253916666666667,,12.253916666666667
161,2015-10-09,10.033916666666666,,10.033916666666666
161,2015-10-10,17.306583333333332,,17.306583333333332
161,2015-10-11,16.537791666666667,,16.537791666666667
161,2015-10-12,16.005916666666668,,16.005916666666668
161,2015-10-13,10.606875,,10.606875
161,2015-10-14,10.19475,,10.19475
161,2015-10-15,15.850291666666665,,15.850291666666665
161,2015-10-16,11.708374999999998,,11.708374999999998
161,2015-10-17,13.33475,,13.33475
161,2015-10-18,13.986375,,13.986375
161,2015-10-19,15.57625,,15.57625
161,2015-10-20,14.163416666666668,,14.163416666666668
161,2015-10-21,13.123750000000001,,13.123750000000001
161,2015-10-22,10.31575,,10.31575
161,2015-10-23,14.237,,14.237
161,2015-10-24,6.028666666666666,,6.028666666666666
161,2015-10-25,6.332083333333333,,6.332083333333333
161,2015-10-26,14.167291666666666,,14.167291666666666
161,2015-10-27,8.133541666666668,,8.133541666666668
161,2015-10-28,0.86075,,0.86075
161,2015-10-29,10.535166666666667,,10.535166666666667
161,2015-10-30,13.912166666666666,,13.912166666666666
161,2015-10-31,11.055333333333332,,11.055333333333332
161,2015-11-01,4.59375,,4.59375
161,2015-11-02,6.579458333333334,,6.579458333333334
161,2015-11-03,12.157625000000001,,12.157625000000001
161,2015-11-04,11.961541666666667,,11.961541666666667
161,2015-11-05,4.311916666666667,,4.311916666666667
161,2015-11-06,5.429125,,5.429125
161,2015-11-07,3.442833333333333,,3.442833333333333
161,2015-11-08,12.327541666666667,,12.327541666666667
161,2015-11-09,10.31125,,10.31125
161,2015-11-10,1.0299583333333333,,1.0299583333333333
161,2015-11-11,4.582083333333333,,4.582083333333333
161,2015-11-12,1.1523333333333332,,1.1523333333333332
161,2015-11-13,10.84575,,10.84575
161,2015-11-14,11.422624999999998,,11.422624999999998
161,2015-11-15,9.808625000000001,,9.808625000000001
161,2015-11-16,10.445958333333333,,10.445958333333333
161,2015-11-17,11.362666666666668,,11.362666666666668
161,2015-11-18,6.022833333333334,,6.022833333333334
161,2015-11-19,2.263708333333333,,2.263708333333333
161,2015-11-20,10.93425,,10.93425
161,2015-11-21,10.97525,,10.97525
161,2015-11-22,2.79825,,2.79825
161,2015-11-23,10.203791666666666,,10.203791666666666
161,2015-11-24,7.963625,,7.963625
161,2015-11-25,9.992291666666667,,9.992291666666667
161,2015-11-26,8.457041666666667,,8.457041666666667
161,2015-11-27,8.290416666666667,,8.290416666666667
161,2015-11-28,2.7265416666666664,,2.7265416666666664
161,2015-11-29,5.9655,,5.9655
161,2015-11-30,9.168000000000001,,9.168000000000001
161,2015-12-01,0.7454999999999999,,0.7454999999999999
161,2015-12-02,1.2005416666666666,,1.2005416666666666
161,2015-12-03,5.832083333333333,,5.832083333333333
161,2015-12-04,9.528,,9.528
161,2015-12-05,8.984375,,8.984375
161,2015-12-06,9.136750000000001,,9.136750000000001
161,2015-12-07,8.174458333333334,,8.174458333333334
161,2015-12-08,6.850874999999999,,6.850874999999999
161,2015-12-09,2.1679583333333334,,2.1679583333333334
161,2015-12-10,7.68625,,7.68625
161,2015-12-11,5.61525,,5.61525
161,2015-12-12,4.513,,4.513
161,2015-12-13,4.499375,,4.499375
161,2015-12-14,1.321625,,1.321625
161,2015-12-15,6.538458333333334,,6.538458333333334
161,2015-12-16,5.795541666666666,,5.795541666666666
161,2015-12-17,0.18883333333333333,,0.18883333333333333
161,2015-12-18,1.292375,,1.292375
161,2015-12-19,5.994791666666667,,5.994791666666667
161,2015-12-20,6.711541666666666,,6.711541666666666
161,2015-12-21,2.2051666666666665,,2.2051666666666665
161,2015-12-22,0.3509166666666667,,0.3509166666666667
161,2015-12-23,0.37175,,0.37175
161,2015-12-24,1.7942916666666668,,1.7942916666666668
161,2015-12-25,2.1328333333333336,,2.1328333333333336
161,2015-12-26,1.5254166666666666,,1.5254166666666666
161,2015-12-27,1.2474583333333333,,1.2474583333333333
161,2015-12-28,4.979875,,4.979875
161,2015-12-29,1.000625,,1.000625
161,2015-12-30,0.64525,,0.64525
161,2015-12-31,3.3827916666666664,,3.3827916666666664
161,2016-01-01,1.9440416666666664,,1.9440416666666664
161,2016-01-02,4.904333333333333,,4.904333333333333
161,2016-01-03,6.608708333333333,,6.608708333333333
161,2016-01-04,6.768249999999999,,6.768249999999999
161,2016-01-05,7.571000000000001,,7.571000000000001
161,2016-01-06,7.233791666666666,,7.233791666666666
161,2016-01-07,5.129625,,5.129625
161,2016-01-08,5.474666666666667,,5.474666666666667
161,2016-01-09,1.9687083333333335,,1.9687083333333335
161,2016-01-10,1.6907500000000002,,1.6907500000000002
161,2016-01-11,7.687541666666667,,7.687541666666667
161,2016-01-12,3.155625,,3.155625
161,2016-01-13,7.885416666666667,,7.885416666666667
161,2016-01-14,4.446041666666667,,4.446041666666667
161,2016-01-15,6.3053333333333335,,6.3053333333333335
161,2016-01-16,4.244166666666667,,4.244166666666667
161,2016-01-17,1.1621249999999999,,1.1621249999999999
161,2016-01-18,3.6029166666666668,,3.6029166666666668
161,2016-01-19,8.270958333333333,,8.270958333333333
161,2016-01-20,7.164750000000001,,7.164750000000001
161,2016-01-21,8.05925,,8.05925
161,2016-01-22,4.450583333333333,,4.450583333333333
161,2016-01-23,0.0,,0.0
161,2016-01-24,0.0,,0.0
161,2016-01-25,0.0,,0.0
161,2016-01-26,0.0,,0.0
161,2016-01-27,0.0,,0.0
161,2016-01-28,0.0,,0.0
161,2016-01-29,0.011083333333333334,,0.011083333333333334
161,2016-01-30,0.8067083333333334,,0.8067083333333334
161,2016-01-31,1.3417916666666667,,1.3417916666666667
161,2016-02-01,3.2988750000000002,,3.2988750000000002
161,2016-02-02,8.540375,,8.540375
161,2016-02-03,0.3333333333333333,,0.3333333333333333
161,2016-02-04,3.2005416666666666,,3.2005416666666666
161,2016-02-05,0.03320833333333333,,0.03320833333333333
161,2016-02-06,0.5247083333333333,,0.5247083333333333
161,2016-02-07,4.856208333333334,,4.856208333333334
161,2016-02-08,0.40229166666666666,,0.40229166666666666
161,2016-02-09,3.7754166666666666,,3.7754166666666666
161,2016-02-10,3.29425,,3.29425
161,2016-02-11,7.35425,,7.35425
161,2016-02-12,8.113999999999999,,8.113999999999999
161,2016-02-13,10.024083333333333,,10.024083333333333
161,2016-02-14,11.14725,,11.14725
161,2016-02-15,1.2032083333333332,,1.2032083333333332
161,2016-02-16,0.9740000000000001,,0.9740000000000001
161,2016-02-17,2.7311666666666667,,2.7311666666666667
161,2016-02-18,11.84125,,11.84125
161,2016-02-19,7.102250000000001,,7.102250000000001
161,2016-02-20,7.325583333333333,,7.325583333333333
161,2016-02-21,4.416083333333334,,4.416083333333334
161,2016-02-22,11.577541666666667,,11.577541666666667
161,2016-02-23,1.3685416666666665,,1.3685416666666665
161,2016-02-24,0.698,,0.698
161,2016-02-25,3.2858750000000003,,3.2858750000000003
161,2016-02-26,12.563833333333333,,12.563833333333333
161,2016-02-27,12.544333333333334,,12.544333333333334
161,2016-02-28,12.278,,12.278
161,2016-02-29,6.182958333333333,,6.182958333333333
161,2016-03-01,11.934958333333334,,11.934958333333334
161,2016-03-02,12.215458333333332,,12.215458333333332
161,2016-03-03,10.979875,,10.979875
161,2016-03-04,0.8197083333333333,,0.8197083333333333
161,2016-03-05,10.944666666666668,,10.944666666666668
161,2016-03-06,11.512375,,11.512375
161,2016-03-07,12.322375000000001,,12.322375000000001
161,2016-03-08,10.901708333333334,,10.901708333333334
161,2016-03-09,12.183583333333333,,12.183583333333333
161,2016-03-10,6.900458333333333,,6.900458333333333
161,2016-03-11,10.920625000000001,,10.920625000000001
161,2016-03-12,12.682375,,12.682375
161,2016-03-13,5.670583333333333,,5.670583333333333
161,2016-03-14,2.2005416666666666,,2.2005416666666666
161,2016-03-15,4.318416666666667,,4.318416666666667
161,2016-03-16,11.462916666666667,,11.462916666666667
161,2016-03-17,9.970708333333333,,9.970708333333333
161,2016-03-18,9.772208333333333,,9.772208333333333
161,2016-03-19,9.077416666666666,,9.077416666666666
161,2016-03-20,9.945333333333332,,9.945333333333332
161,2016-03-21,11.934291666666667,,11.934291666666667
161,2016-03-22,14.911541666666666,,14.911541666666666
161,2016-03-23,10.785208333333335,,10.785208333333335
161,2016-03-24,11.825583333333334,,11.825583333333334
161,2016-03-25,6.082041666666666,,6.082041666666666
161,2016-03-26,13.762375,,13.762375
161,2016-03-27,12.682333333333332,,12.682333333333332
161,2016-03-28,5.333333333333333,,5.333333333333333
161,2016-03-29,16.904958333333333,,16.904958333333333
161,2016-03-30,16.229875,,16.229875
161,2016-03-31,10.669333333333334,,10.669333333333334
161,2016-04-01,8.229875,,8.229875
161,2016-04-02,5.186916666666667,,5.186916666666667
161,2016-04-03,13.010416666666666,,13.010416666666666
161,2016-04-04,1.6810833333333333,,1.6810833333333333
161,2016-04-05,16.50979166666667,,16.50979166666667
161,2016-04-06,13.744124999999999,,13.744124999999999
161,2016-04-07,5.21225,,5.21225
161,2016-04-08,7.793625,,7.793625
161,2016-04-09,3.777416666666667,,3.777416666666667
161,2016-04-10,14.1485,,14.1485
161,2016-04-11,11.541041666666667,,11.541041666666667
161,2016-04-12,7.683,,7.683
161,2016-04-13,17.503958333333333,,17.503958333333333
161,2016-04-14,17.0925,,17.0925
161,2016-04-15,17.241583333333335,,17.241583333333335
161,2016-04-16,17.104833333333335,,17.104833333333335
161,2016-04-17,13.147125,,13.147125
161,2016-04-18,15.098374999999999,,15.098374999999999
161,2016-04-19,16.784583333333334,,16.784583333333334
161,2016-04-20,17.742875,,17.742875
161,2016-04-21,16.354875,,16.354875
161,2016-04-22,13.104208333333332,,13.104208333333332
161,2016-04-23,11.031833333333333,,11.031833333333333
161,2016-04-24,16.871083333333335,,16.871083333333335
161,2016-04-25,13.606083333333332,,13.606083333333332
161,2016-04-26,8.587333333333333,,8.587333333333333
161,2016-04-27,12.992916666666666,,12.992916666666666
161,2016-04-28,10.750041666666666,,10.750041666666666
161,2016-04-29,8.059208333333332,,8.059208333333332
161,2016-04-30,16.608166666666666,,16.608166666666666
161,2016-05-01,2.9148333333333336,,2.9148333333333336
161,2016-05-02,6.519458333333334,,6.519458333333334
161,2016-05-03,4.01175,,4.01175
161,2016-05-04,3.1504583333333334,,3.1504583333333334
161,2016-05-05,6.121791666666667,,6.121791666666667
161,2016-05-06,2.2799583333333335,,2.2799583333333335
161,2016-05-07,6.207708333333334,,6.207708333333334
161,2016-05-08,13.8815,,13.8815
161,2016-05-09,14.874416666666667,,14.874416666666667
161,2016-05-10,11.576208333333334,,11.576208333333334
161,2016-05-11,16.979875,,16.979875
161,2016-05-12,17.43883333333333,,17.43883333333333
161,2016-05-13,4.0209166666666665,,4.0209166666666665
161,2016-05-14,13.547583333333334,,13.547583333333334
161,2016-05-15,9.99225,,9.99225
161,2016-05-16,18.490291666666668,,18.490291666666668
161,2016-05-17,6.117249999999999,,6.117249999999999
161,2016-05-18,14.479833333333334,,14.479833333333334
161,2016-05-19,13.960333333333333,,13.960333333333333
161,2016-05-20,16.419333333333334,,16.419333333333334
161,2016-05-21,5.544291666666666,,5.544291666666666
161,2016-05-22,10.547583333333334,,10.547583333333334
161,2016-05-23,16.258583333333334,,16.258583333333334
161,2016-05-24,7.050125,,7.050125
161,2016-05-25,17.140625,,17.140625
161,2016-05-26,16.178416666666667,,16.178416666666667
161,2016-05-27,15.623750000000001,,15.623750000000001
161,2016-05-28,15.554083333333333,,15.554083333333333
161,2016-05-29,16.43433333333333,,16.43433333333333
161,2016-05-30,9.902416666666666,,9.902416666666666
161,2016-05-31,14.810625,,14.810625
161,2016-06-01,16.468166666666665,,16.468166666666665
161,2016-06-02,17.469458333333332,,17.469458333333332
161,2016-06-03,5.213,,5.213
161,2016-06-04,9.584625,,9.584625
161,2016-06-05,2.9102083333333333,,2.9102083333333333
161,2016-06-06,16.259833333333333,,16.259833333333333
161,2016-06-07,13.822333333333333,,13.822333333333333
161,2016-06-08,7.897875,,7.897875
161,2016-06-09,19.513,,19.513
161,2016-06-10,18.993624999999998,,18.993624999999998
161,2016-06-11,13.462874999999999,,13.462874999999999
161,2016-06-12,13.179124999999999,,13.179124999999999
161,2016-06-13,16.48454166666667,,16.48454166666667
161,2016-06-14,18.855541666666667,,18.855541666666667
161,2016-06-15,17.889416666666666,,17.889416666666666
161,2016-06-16,4.472083333333333,,4.472083333333333
161,2016-06-17,16.701208333333334,,16.701208333333334
161,2016-06-18,17.093166666666665,,17.093166666666665
161,2016-06-19,17.4245,,17.4245
161,2016-06-20,17.073,,17.073
161,2016-06-21,15.421958333333334,,15.421958333333334
161,2016-06-22,17.082666666666665,,17.082666666666665
161,2016-06-23,8.004666666666667,,8.004666666666667
161,2016-06-24,17.107458333333334,,17.107458333333334
161,2016-06-25,17.47725,,17.47725
161,2016-06-26,16.627625,,16.627625
161,2016-06-27,14.762416666666667,,14.762416666666667
161,2016-06-28,4.5097499999999995,,4.5097499999999995
161,2016-06-29,14.625708333333334,,14.625708333333334
161,2016-06-30,16.257166666666667,,16.257166666666667
161,2016-07-01,9.282541666666667,,9.282541666666667
161,2016-07-02,16.736291666666666,,16.736291666666666
161,2016-07-03,11.6745,,11.6745
161,2016-07-04,15.9825,,15.9825
161,2016-07-05,13.079416666666667,,13.079416666666667
161,2016-07-06,16.664083333333334,,16.664083333333334
161,2016-07-07,9.914125,,9.914125
161,2016-07-08,12.891374999999998,,12.891374999999998
161,2016-07-09,5.168625,,5.168625
161,2016-07-10,11.181,,11.181
161,2016-07-11,16.772875,,16.772875
161,2016-07-12,17.11466666666667,,17.11466666666667
161,2016-07-13,12.430375,,12.430375
161,2016-07-14,11.618541666666667,,11.618541666666667
161,2016-07-15,10.640708333333334,,10.640708333333334
161,2016-07-16,12.544333333333334,,12.544333333333334
161,2016-07-17,15.752625,,15.752625
161,2016-07-18,12.204541666666666,,12.204541666666666
161,2016-07-19,16.162125,,16.162125
161,2016-07-20,19.622416666666666,,19.622416666666666
161,2016-07-21,22.66016666666667,,22.66016666666667
161,2016-07-22,20.763708333333334,,20.763708333333334
161,2016-07-23,23.395875,,23.395875
161,2016-07-24,21.054041666666667,,21.054041666666667
161,2016-07-25,18.516333333333332,,18.516333333333332
161,2016-07-26,22.522208333333335,,22.522208333333335
161,2016-07-27,22.787791666666667,,22.787791666666667
161,2016-07-28,17.390041666666665,,17.390041666666665
161,2016-07-29,18.752041666666667,,18.752041666666667
161,2016-07-30,11.776666666666666,,11.776666666666666
161,2016-07-31,7.7720416666666665,,7.7720416666666665
161,2016-08-01,10.979833333333334,,10.979833333333334
161,2016-08-02,19.343125,,19.343125
161,2016-08-03,22.497416666666666,,22.497416666666666
161,2016-08-04,19.073625,,19.073625
161,2016-08-05,19.58925,,19.58925
161,2016-08-06,14.241583333333333,,14.241583333333333
161,2016-08-07,18.349,,18.349
161,2016-08-08,15.481791666666666,,15.481791666666666
161,2016-08-09,20.9525,,20.9525
161,2016-08-10,9.360083333333334,,9.360083333333334
161,2016-08-11,17.010375,,17.010375
161,2016-08-12,17.3555,,17.3555
161,2016-08-13,19.781333333333333,,19.781333333333333
161,2016-08-14,16.081416666666666,,16.081416666666666
161,2016-08-15,20.037833333333335,,20.037833333333335
161,2016-08-16,16.861375,,16.861375
161,2016-08-17,21.11,,21.11
161,2016-08-18,8.885416666666666,,8.885416666666666
161,2016-08-19,16.77675,,16.77675
161,2016-08-20,12.427124999999998,,12.427124999999998
161,2016-08-21,14.973291666666666,,14.973291666666666
161,2016-08-22,22.699916666666667,,22.699916666666667
161,2016-08-23,22.110708333333335,,22.110708333333335
161,2016-08-24,21.044375,,21.044375
161,2016-08-25,16.644583333333333,,16.644583333333333
161,2016-08-26,17.665375,,17.665375
161,2016-08-27,20.487583333333333,,20.487583333333333
161,2016-08-28,20.550166666666666,,20.550166666666666
161,2016-08-29,20.349,,20.349
161,2016-08-30,18.856166666666667,,18.856166666666667
161,2016-08-31,14.618416666666667,,14.618416666666667
161,2016-09-01,5.129583333333334,,5.129583333333334
161,2016-09-02,19.383458333333333,,19.383458333333333
161,2016-09-03,12.385458333333332,,12.385458333333332
161,2016-09-04,18.963,,18.963
161,2016-09-05,13.672541666666667,,13.672541666666667
161,2016-09-06,7.513000000000001,,7.513000000000001
161,2016-09-07,13.458458333333333,,13.458458333333333
161,2016-09-08,17.735,,17.735
161,2016-09-09,11.934875,,11.934875
161,2016-09-10,16.672541666666667,,16.672541666666667
161,2016-09-11,13.596458333333333,,13.596458333333333
161,2016-09-12,16.673791666666666,,16.673791666666666
161,2016-09-13,19.063166666666667,,19.063166666666667
161,2016-09-14,16.773500000000002,,16.773500000000002
161,2016-09-15,20.43104166666667,,20.43104166666667
161,2016-09-16,14.015041666666667,,14.015041666666667
161,2016-09-17,19.15041666666667,,19.15041666666667
161,2016-09-18,7.515666666666667,,7.515666666666667
161,2016-09-19,2.4343333333333335,,2.4343333333333335
161,2016-09-20,12.812541666666666,,12.812541666666666
161,2016-09-21,14.699875,,14.699875
161,2016-09-22,18.160125,,18.160125
161,2016-09-23,16.947958333333332,,16.947958333333332
161,2016-09-24,14.371166666666667,,14.371166666666667
161,2016-09-25,18.565208333333334,,18.565208333333334
161,2016-09-26,15.625,,15.625
161,2016-09-27,13.5345,,13.5345
161,2016-09-28,7.0384166666666665,,7.0384166666666665
161,2016-09-29,3.1061666666666667,,3.1061666666666667
161,2016-09-30,2.718125,,2.718125
161,2016-10-01,2.7233750000000003,,2.7233750000000003
161,2016-10-02,3.3802916666666665,,3.3802916666666665
161,2016-10-03,9.847708333333333,,9.847708333333333
161,2016-10-04,9.959041666666666,,9.959041666666666
161,2016-10-05,15.599666666666666,,15.599666666666666
161,2016-10-06,15.95975,,15.95975
161,2016-10-07,16.0085,,16.0085
161,2016-10-08,4.1146666666666665,,4.1146666666666665
161,2016-10-09,1.6263333333333332,,1.6263333333333332
161,2016-10-10,17.516291666666667,,17.516291666666667
161,2016-10-11,16.480541666666667,,16.480541666666667
161,2016-10-12,11.306,,11.306
161,2016-10-13,8.233166666666667,,8.233166666666667
161,2016-10-14,16.164083333333334,,16.164083333333334
161,2016-10-15,15.248750000000001,,15.248750000000001